{"data":{"norad_id":66751,"intl_designator":"2025-276CP","name":"ICEYE-X58","alt_names":[],"object_type":"PAYLOAD","status":"ACTIVE","operator":null,"country":"FIN","launch_date":"2025-11-28","launch_site_code":"AFWTR","launch_vehicle":null,"mission":null,"orbit_class":"UNKNOWN","rcs_meters":null,"size_class":null,"mass_kg":null,"dimensions":null,"purposes":[],"wikipedia_slug":null,"has_3d_model":false,"image_url":null,"decayed_at":null,"tle_current":{"epoch":"2026-05-25T04:17:36.868416Z","epoch_age_seconds":69669,"freshness":"FRESH","line1":"1 66751U 25276CP  26145.17889894  .00001076  00000+0  56612-4 0  9996","line2":"2 66751  97.4212 219.0774 0004710  70.4020 289.7722 15.17724569 26920","mean_motion":15.17724569,"eccentricity":0.000471,"inclination_deg":97.4212,"raan_deg":219.0774,"arg_perigee_deg":70.402,"mean_anomaly_deg":289.7722,"bstar":5.6612e-5,"rev_number":2692,"period_min":94.878875219684,"perigee_km":509.47378481169,"apogee_km":515.96497151992,"semimajor_km":6890.8563781658,"source":"CELESTRAK","updated_at":"2026-05-25T13:38:06.451560Z"}}}